{"data":{"norad_id":27843,"epoch":"2026-09-19T23:09:13.294944Z","epoch_age_seconds":64568,"freshness":"FRESH","line1":"1 27843U 03031D   26262.96473721  .00000029  00000+0  33243-4 0  9997","line2":"2 27843  98.7086 269.3835 0009512 345.4004  14.6897 14.21338419204172","mean_motion":14.21338419,"eccentricity":0.0009512,"inclination_deg":98.7086,"raan_deg":269.3835,"arg_perigee_deg":345.4004,"mean_anomaly_deg":14.6897,"bstar":3.3243e-5,"rev_number":20417,"period_min":101.31295831806,"perigee_km":813.98226079415,"apogee_km":827.6775754592,"semimajor_km":7198.9669181267,"source":"CELESTRAK","updated_at":"2026-09-20T09:00:47.141453Z"}}